Regional Weather Roundup
Issued by NWS

Home | Current Version | Previous Version | Graphics & Text | Print | Product List | Glossary On
Versions: 1 2 3 4 5 6 7 8 9 10 11 12 13 14 15 16 17 18 19 20 21 22 23 24 25 26 27 28 29 30 31 32 33 34 35 36 37 38 39 40 41 42 43 44 45 46 47 48 49 50
000
ASUS43 KIND 282100
RWRIN

WEATHER ROUNDUP FOR INDIANA
NATIONAL WEATHER SERVICE INDIANAPOLIS IN
500 PM EDT FRI JUL 28 2017

NOTE: "FAIR" INDICATES FEW OR NO CLOUDS BELOW 12,000 FEET WITH NO
SIGNIFICANT WEATHER AND/OR OBSTRUCTIONS TO VISIBILITY.

* - STATION DOES NOT REPORT WEATHER SUCH AS PRECIPITATION OR FOG.

+ - STATION NOT QUALITY CONTROLLED BY THE NATIONAL WEATHER SERVICE.
    USE DATA WITH CAUTION...ESPECIALLY DEWPOINT AND RELATIVE
    HUMIDITY OBSERVATIONS.

INZ001>003-010>013-019-020-282200-
NORTHWEST INDIANA

CITY           SKY/WX    TMP DP  RH WIND       PRES   REMARKS
GARY /AIRPORT/ MOSUNNY   77  64  65 N16G30    30.00R
MICHIGAN CITY+ SUNNY     75  63  64 N16G24    29.98S
MONTICELLO +   MOSUNNY   79  63  57 N7G17     29.92S
RENSSELAER +   MOSUNNY   77  63  61 N14       29.95R

$$

LMZ046-743>745-282200-
SOUTHERN LAKE MICHIGAN

STATION/POSITION TIME  TEMP    WIND        PRES    WAVE
                       AIR SEA DIR/SP/G            HT
                 (UTC) (F)     (DEG/KT/KT) (MB)    (FT)
BURNS HARBOR     2040   73      10/ 18/ 23 1015.2F
MICHIGAN CITY    2030   73     350/ 23/ 25   N/A
5NW MICH CITY    2050   73 74   10/ 17/ 23   N/A     6

$$

INZ004-005-014>016-021>024-282200-
NORTH CENTRAL INDIANA

CITY           SKY/WX    TMP DP  RH WIND       PRES   REMARKS
ELKHART        MOSUNNY   81  52  36 NE12G23   29.95F
GOSHEN         MOSUNNY   81  54  39 NE14      29.94F
SOUTH BEND     MOSUNNY   78  55  44 NE9       29.96S

$$

INZ006>009-017-018-025>027-282200-
NORTHEAST INDIANA

CITY           SKY/WX    TMP DP  RH WIND       PRES   REMARKS
AUBURN +       MOSUNNY   79  59  50 N13G20    29.93S
FORT WAYNE     PTSUNNY   78  60  53 NE13      29.91S
KENDALLVILLE + MOSUNNY   77  56  48 N13G21    29.94S

$$

INZ028-029-035-036-043>045-051>053-282200-
WEST CENTRAL INDIANA

CITY           SKY/WX    TMP DP  RH WIND       PRES   REMARKS
GREENCASTLE +  SUNNY     79  59  50 NE13      29.90S
LAFAYETTE      MOSUNNY   80  63  55 N14G20    29.92R
TERRE HAUTE    MOSUNNY   82  64  54 NE13      29.89R

$$

INZ030>032-037>040-046>048-054>057-064-065-282200-
CENTRAL INDIANA

CITY           SKY/WX    TMP DP  RH WIND       PRES   REMARKS
COLUMBUS       SUNNY     81  59  47 N13G22    29.86
FRANKFORT +    CLOUDY    81  65  58 NE13      29.94S
GREENWOOD *+   SUNNY    N/A N/A N/A N14       29.89S
INDIANAPOLIS   MOSUNNY   81  57  43 NE18      29.88F
-EAGLE CREEK   SUNNY     82  60  47 NE10G20   29.89S
KOKOMO +       PTSUNNY   81  64  56 NE14      29.93S
MT COMFORT *+  MOSUNNY   79  61  53 N16       29.90S
SHELBYVILLE    MOSUNNY   82  62  50 N14G22    29.87S

$$

INZ033-034-041-042-049-050-058-059-282200-
EAST CENTRAL INDIANA

CITY           SKY/WX    TMP DP  RH WIND       PRES   REMARKS
MUNCIE         MOSUNNY   81  64  56 NE10G20   29.90F
RICHMOND +     MOSUNNY   77  64  65 NE15      29.89S

$$

INZ060-061-067>069-081>083-085>088-282200-
SOUTHWEST INDIANA

CITY           SKY/WX    TMP DP  RH WIND       PRES   REMARKS
EVANSVILLE     MOSUNNY   85  72  65 N12G17    29.82S
HUNTINGBURG *+ CLOUDY    80  72  76 N5        29.83R

$$

INZ062-063-066-070>080-084-089>092-282200-
SOUTH CENTRAL AND SOUTHEAST INDIANA

CITY           SKY/WX    TMP DP  RH WIND       PRES   REMARKS
BLOOMINGTON    MOSUNNY   82  63  52 N14       29.86S
MADISON *+     SUNNY     82  64  54 N6        29.84F
SEYMOUR +      SUNNY     84  64  51 N13G21    29.83F

$$





USA.gov is the U.S. government's official web portal to all federal, state and local government web resources and services.